DM5RC Weather Reports


Display with metric or nautical units.
time (UTC)temp
F
wind
direction
speed
MPH
gust
MPH
rain 1hr
in
rain 24hr
in
rain mn
in
humidity
%
barometer
mb
20260906163349 68 279 1.0 5.0 0.00 0.20 0.00 56 1025.5
20260906162826 68 353 2.0 5.0 0.00 0.20 0.00 56 1025.5
20260906162325 68 321 2.0 5.0 0.00 0.20 0.00 56 1025.5
20260906161826 69 276 1.0 5.0 0.00 0.20 0.00 56 1025.5
20260906161326 68 271 2.0 5.0 0.00 0.20 0.00 55 1025.5
20260906160826 69 276 1.0 6.0 0.00 0.20 0.00 55 1025.6
20260906160347 69 263 3.0 8.0 0.00 0.20 0.00 54 1025.5
20260906155827 69 315 4.0 10.0 0.00 0.20 0.00 55 1025.6
20260906155327 69 260 5.0 10.0 0.00 0.20 0.00 55 1025.5
20260906154828 69 280 3.0 8.0 0.00 0.20 0.00 55 1025.5
20260906154329 69 265 4.0 8.0 0.00 0.20 0.00 55 1025.6
20260906153830 69 265 3.0 8.0 0.00 0.20 0.00 54 1025.5
20260906153351 69 293 3.0 9.0 0.00 0.20 0.00 55 1025.6
20260906152847 69 289 3.0 9.0 0.00 0.20 0.00 55 1025.7
20260906152314 69 314 2.0 11.0 0.00 0.20 0.00 55 1025.7
20260906151817 69 283 4.0 11.0 0.00 0.20 0.00 56 1025.7
20260906151319 69 304 4.0 10.0 0.00 0.20 0.00 56 1025.7
20260906150818 68 274 4.0 10.0 0.00 0.20 0.00 57 1025.6
20260906150318 68 335 4.0 10.0 0.00 0.20 0.00 56 1025.6
20260906145817 68 276 3.0 12.0 0.00 0.20 0.00 55 1025.5
20260906145318 68 299 6.0 12.0 0.00 0.20 0.00 55 1025.5
20260906144821 67 1 4.0 8.0 0.00 0.20 0.00 56 1025.5
20260906144323 67 296 3.0 8.0 0.00 0.20 0.00 55 1025.6
20260906143826 67 355 5.0 9.0 0.00 0.20 0.00 55 1025.6
20260906143327 68 284 5.0 9.0 0.00 0.20 0.00 55 1025.6
20260906142829 68 274 3.0 14.0 0.00 0.20 0.00 56 1025.6
20260906142331 68 264 7.0 14.0 0.00 0.20 0.00 54 1025.6
20260906141814 68 280 4.0 16.0 0.00 0.20 0.00 54 1025.6
20260906141315 68 233 9.0 16.0 0.00 0.20 0.00 54 1025.6
20260906140817 69 341 6.0 13.0 0.00 0.20 0.00 53 1025.6
20260906140319 69 4 6.0 13.0 0.00 0.20 0.00 54 1025.5
20260906135842 69 11 5.0 11.0 0.00 0.20 0.00 53 1025.6
20260906135324 69 281 6.0 15.0 0.00 0.20 0.00 53 1025.6
20260906134827 69 283 8.0 14.0 0.00 0.20 0.00 54 1025.7
20260906134329 69 339 6.0 12.0 0.00 0.20 0.00 54 1025.7
20260906133832 69 307 4.0 15.0 0.00 0.20 0.00 54 1025.7
20260906133353 68 284 7.0 15.0 0.00 0.20 0.00 54 1025.8
20260906132836 68 281 9.0 15.0 0.00 0.20 0.00 54 1025.8
20260906132336 68 277 4.0 14.0 0.00 0.20 0.00 56 1025.7
20260906131814 68 277 6.0 16.0 0.00 0.20 0.00 57 1025.7
20260906131316 68 276 8.0 15.0 0.00 0.20 0.00 56 1025.8
20260906130840 68 264 7.0 13.0 0.00 0.20 0.00 55 1025.7
20260906130343 68 314 4.0 12.0 0.00 0.20 0.00 56 1025.8
20260906125826 68 303 7.0 12.0 0.00 0.20 0.00 56 1025.8
20260906125350 68 262 5.0 10.0 0.00 0.20 0.00 55 1025.9
20260906124827 68 278 5.0 12.0 0.00 0.20 0.00 56 1025.7
20260906124330 67 282 8.0 18.0 0.00 0.20 0.00 54 1025.7
20260906123851 67 288 8.0 18.0 0.00 0.20 0.00 55 1025.9
20260906123323 67 260 7.0 15.0 0.00 0.20 0.00 56 1025.7
20260906122846 66 278 9.0 15.0 0.00 0.20 0.00 58 1025.9
20260906122326 66 269 8.0 16.0 0.00 0.20 0.00 57 1025.8
20260906121826 66 219 7.0 12.0 0.00 0.20 0.00 56 1025.8
20260906121347 67 233 5.0 12.0 0.00 0.20 0.00 56 1025.8
20260906120827 67 289 4.0 12.0 0.00 0.20 0.00 56 1025.8
20260906120328 67 269 6.0 12.0 0.00 0.20 0.00 55 1025.8
20260906115829 66 324 5.0 15.0 0.00 0.20 0.00 58 1025.8
20260906115330 66 277 6.0 15.0 0.00 0.20 0.00 58 1025.8
20260906114852 66 316 6.0 12.0 0.00 0.20 0.00 58 1025.7
20260906114314 66 46 7.0 18.0 0.00 0.20 0.00 55 1025.8
20260906113816 66 224 7.0 18.0 0.00 0.20 0.00 58 1025.8
20260906113318 65 259 6.0 13.0 0.00 0.20 0.00 58 1025.8
20260906112821 65 281 7.0 15.0 0.00 0.20 0.00 60 1025.9
20260906112322 65 271 6.0 15.0 0.00 0.20 0.00 59 1025.8
20260906111823 66 281 10.0 15.0 0.00 0.20 0.00 56 1025.8
20260906111343 66 278 3.0 13.0 0.00 0.20 0.00 59 1025.6
20260906110824 65 321 6.0 10.0 0.00 0.20 0.00 62 1025.6
20260906110342 64 276 3.0 9.0 0.00 0.20 0.00 64 1025.6
20260906105823 64 267 3.0 10.0 0.00 0.20 0.00 63 1025.6
20260906105324 65 13 5.0 10.0 0.00 0.20 0.00 62 1025.7
20260906104827 65 283 5.0 11.0 0.00 0.20 0.00 61 1025.6
20260906104315 65 286 5.0 11.0 0.00 0.20 0.00 61 1025.5
20260906103818 65 259 7.0 11.0 0.00 0.20 0.00 61 1025.5
20260906103320 66 264 3.0 10.0 0.00 0.20 0.00 62 1025.6
20260906102822 65 274 5.0 10.0 0.00 0.20 0.00 61 1025.5
20260906102325 65 358 4.0 11.0 0.00 0.20 0.00 63 1025.7
20260906101829 65 274 4.0 11.0 0.00 0.20 0.00 65 1025.7
20260906101329 64 281 7.0 11.0 0.00 0.20 0.00 65 1025.7
20260906100846 63 262 4.0 9.0 0.00 0.20 0.00 67 1025.6
20260906100346 63 279 3.0 10.0 0.00 0.20 0.00 68 1025.7
20260906095825 64 293 6.0 10.0 0.00 0.20 0.00 67 1025.7
20260906095327 64 255 5.0 12.0 0.00 0.20 0.00 67 1025.6
20260906094830 64 276 5.0 12.0 0.00 0.20 0.00 65 1025.6
20260906094331 64 259 4.0 17.0 0.00 0.20 0.00 66 1025.6
20260906093814 64 287 9.0 17.0 0.00 0.20 0.00 66 1025.7
20260906093330 64 277 6.0 15.0 0.00 0.20 0.00 69 1025.6
20260906092832 64 249 9.0 15.0 0.00 0.20 0.00 68 1025.6
20260906092314 64 13 6.0 13.0 0.00 0.20 0.00 67 1025.6
20260906091816 64 285 5.0 11.0 0.00 0.20 0.00 69 1025.7
20260906091327 64 278 4.0 16.0 0.00 0.20 0.00 69 1025.6
20260906090827 63 252 6.0 16.0 0.00 0.20 0.00 68 1025.7
20260906090329 63 237 3.0 12.0 0.00 0.20 0.00 71 1025.7
20260906085813 63 271 6.0 12.0 0.00 0.20 0.00 71 1025.7
20260906085343 63 269 5.0 13.0 0.00 0.20 0.00 70 1025.7
20260906084824 63 267 4.0 13.0 0.00 0.20 0.00 72 1025.6
20260906084326 62 274 4.0 15.0 0.00 0.20 0.00 73 1025.5
20260906083829 62 296 8.0 15.0 0.00 0.20 0.00 72 1025.6
20260906083330 62 332 4.0 15.0 0.00 0.20 0.00 74 1025.5
20260906082815 62 257 8.0 15.0 0.00 0.20 0.00 74 1025.5
20260906082318 61 280 5.0 13.0 0.00 0.20 0.00 74 1025.4
20260906081819 61 279 6.0 13.0 0.00 0.20 0.00 75 1025.6
20260906081324 61 290 6.0 11.0 0.00 0.20 0.00 76 1025.6
20260906080827 61 336 4.0 15.0 0.00 0.20 0.00 77 1025.4
20260906080312 61 272 8.0 15.0 0.00 0.20 0.00 76 1025.3
20260906075828 60 261 6.0 10.0 0.00 0.20 0.00 76 1025.3
20260906075330 60 326 4.0 11.0 0.00 0.20 0.00 77 1025.3
20260906074812 60 286 6.0 11.0 0.00 0.20 0.00 77 1025.2
20260906074313 60 278 3.0 11.0 0.00 0.20 0.00 79 1025.2
20260906073816 60 299 5.0 14.0 0.00 0.20 0.00 80 1025.2
20260906073319 59 293 2.0 15.0 0.00 0.20 0.00 81 1025.1
20260906072834 59 224 8.0 14.0 0.00 0.20 0.00 80 1025.1
20260906072333 59 293 5.0 10.0 0.00 0.20 0.00 81 1025.0
20260906071853 58 243 6.0 11.0 0.00 0.20 0.00 81 1025.0
20260906071331 58 264 5.0 15.0 0.00 0.20 0.00 81 1024.9
20260906070831 58 278 3.0 15.0 0.00 0.20 0.00 82 1024.9
20260906070332 57 289 6.0 12.0 0.00 0.20 0.00 83 1024.8
20260906065813 57 258 6.0 11.0 0.00 0.20 0.00 83 1025.0
20260906065333 57 287 3.0 13.0 0.00 0.20 0.00 84 1024.8
20260906064844 56 259 7.0 14.0 0.00 0.20 0.00 85 1024.8
20260906064324 56 270 8.0 14.0 0.00 0.20 0.00 84 1024.7
20260906063825 56 264 6.0 12.0 0.00 0.20 0.00 84 1024.9
20260906063328 56 259 5.0 16.0 0.00 0.20 0.00 85 1024.6
20260906062832 56 282 6.0 13.0 0.00 0.20 0.00 85 1024.5
20260906062315 56 273 6.0 15.0 0.00 0.20 0.00 85 1024.5
20260906061818 55 290 7.0 15.0 0.00 0.20 0.00 86 1024.4
20260906061320 55 281 5.0 13.0 0.00 0.20 0.00 86 1024.4
20260906060824 55 262 7.0 13.0 0.00 0.20 0.00 86 1024.2
20260906060326 55 262 5.0 12.0 0.00 0.20 0.00 86 1024.1
20260906055828 55 272 6.0 13.0 0.00 0.20 0.00 86 1024.1
20260906055332 55 273 6.0 11.0 0.00 0.20 0.00 86 1024.1
20260906054814 55 282 3.0 14.0 0.00 0.20 0.00 87 1023.9
20260906054315 55 257 7.0 14.0 0.00 0.20 0.00 86 1023.8
20260906053837 55 287 7.0 13.0 0.00 0.20 0.00 86 1023.8
20260906053315 55 263 5.0 13.0 0.00 0.20 0.00 87 1023.7
20260906052817 55 274 3.0 15.0 0.00 0.20 0.00 88 1023.7
20260906052317 54 277 10.0 15.0 0.00 0.20 0.00 87 1023.7
20260906051819 54 271 5.0 11.0 0.00 0.20 0.00 88 1023.6
20260906051321 54 286 5.0 11.0 0.00 0.20 0.00 88 1023.6
20260906050824 54 276 5.0 12.0 0.00 0.20 0.00 88 1023.6
20260906050326 54 255 5.0 12.0 0.00 0.20 0.00 88 1023.5
20260906045829 54 281 6.0 11.0 0.00 0.20 0.00 88 1023.6
20260906045351 54 287 5.0 10.0 0.00 0.20 0.00 88 1023.5
20260906044812 54 278 5.0 10.0 0.00 0.20 0.00 88 1023.5
20260906044315 54 222 6.0 10.0 0.00 0.20 0.00 88 1023.5
20260906043816 54 271 5.0 9.0 0.00 0.20 0.00 88 1023.4
20260906043318 54 271 5.0 11.0 0.00 0.20 0.00 88 1023.4
20260906042840 54 264 6.0 11.0 0.00 0.20 0.00 88 1023.3
20260906042322 54 243 6.0 10.0 0.00 0.20 0.00 88 1023.2
20260906041825 54 286 4.0 11.0 0.00 0.20 0.00 88 1023.1
20260906041327 54 271 5.0 11.0 0.00 0.20 0.00 88 1023.1
20260906040821 54 277 3.0 11.0 0.00 0.20 0.00 88 1023.0
20260906040321 54 281 5.0 11.0 0.00 0.20 0.00 87 1023.1
20260906035822 54 267 5.0 9.0 0.00 0.20 0.00 87 1023.0
20260906035343 55 276 4.0 10.0 0.00 0.20 0.00 87 1022.9
20260906034823 55 281 6.0 10.0 0.00 0.20 0.00 87 1022.9
20260906034323 55 246 6.0 11.0 0.00 0.20 0.00 87 1022.8
20260906033825 55 276 3.0 12.0 0.00 0.20 0.00 87 1022.8
20260906033349 55 217 4.0 12.0 0.00 0.20 0.00 87 1022.8
20260906032320 55 278 5.0 11.0 0.00 0.20 0.00 87 1022.7
20260906031824 55 280 5.0 11.0 0.00 0.20 0.00 87 1022.6
20260906031327 55 257 4.0 11.0 0.00 0.20 0.00 87 1022.6
20260906030828 55 265 6.0 11.0 0.00 0.20 0.00 87 1022.6
20260906030349 55 268 4.0 10.0 0.00 0.20 0.00 87 1022.5
20260906025827 55 282 5.0 10.0 0.00 0.20 0.00 87 1022.5
20260906025326 55 270 5.0 13.0 0.00 0.20 0.00 87 1022.5
20260906024826 55 273 7.0 13.0 0.00 0.20 0.00 87 1022.5
20260906024326 55 261 4.0 11.0 0.00 0.20 0.00 87 1022.4
20260906023825 55 269 5.0 11.0 0.00 0.20 0.00 87 1022.4
20260906023346 55 275 5.0 11.0 0.00 0.20 0.00 87 1022.4
20260906022827 56 255 5.0 11.0 0.00 0.20 0.00 87 1022.4
20260906022329 55 271 4.0 10.0 0.00 0.20 0.00 87 1022.4
20260906021812 56 267 5.0 10.0 0.00 0.20 0.00 87 1022.4
20260906021314 56 249 5.0 8.0 0.00 0.20 0.00 87 1022.3
20260906020815 56 257 4.0 9.0 0.00 0.20 0.00 87 1022.3
20260906020318 56 259 3.0 10.0 0.00 0.20 0.00 87 1022.2
20260906015328 56 274 5.0 14.0 0.00 0.20 0.00 87 1022.1
20260906014832 56 269 3.0 12.0 0.00 0.20 0.00 87 1022.2
20260906014315 56 243 4.0 12.0 0.00 0.20 0.00 88 1022.0
20260906013818 56 289 5.0 9.0 0.00 0.20 0.00 88 1021.9
20260906013320 56 278 3.0 10.0 0.00 0.20 0.00 88 1021.8
20260906012823 56 268 6.0 11.0 0.00 0.20 0.00 88 1021.8
20260906012345 56 269 4.0 11.0 0.00 0.20 0.00 88 1021.8
20260906011827 56 273 3.0 11.0 0.00 0.20 0.00 88 1021.7
20260906011349 56 271 4.0 9.0 0.00 0.20 0.00 88 1021.7
20260906010830 56 254 6.0 9.0 0.00 0.20 0.00 88 1021.7
20260906010349 56 275 6.0 10.0 0.00 0.20 0.00 88 1021.6
20260906005815 56 256 5.0 9.0 0.00 0.20 0.00 88 1021.6
20260906005316 56 267 3.0 9.0 0.00 0.20 0.00 88 1021.5
20260906004820 56 270 3.0 8.0 0.00 0.20 0.00 88 1021.5
20260906004324 56 262 3.0 8.0 0.00 0.20 0.00 88 1021.6
20260906003826 56 271 4.0 8.0 0.00 0.20 0.00 87 1021.5
20260906003330 56 275 4.0 9.0 0.00 0.20 0.00 87 1021.5
20260906002813 57 261 3.0 8.0 0.00 0.20 0.00 86 1021.5
20260906002334 57 285 4.0 12.0 0.00 0.20 0.00 86 1021.4
20260906001814 57 263 4.0 12.0 0.00 0.20 0.00 86 1021.4
20260906001331 57 281 4.0 10.0 0.00 0.20 0.00 86 1021.4
20260906000851 57 278 5.0 13.0 0.00 0.20 0.00 86 1021.5
20260906000333 57 224 5.0 13.0 0.00 0.20 0.00 86 1021.4
20260905235812 57 269 6.0 12.0 0.00 0.20 0.00 86 1021.3
20260905235313 57 258 5.0 12.0 0.00 0.20 0.00 86 1021.3
20260905234812 57 260 6.0 13.0 0.00 0.20 0.00 85 1021.2
20260905234316 57 262 6.0 13.0 0.00 0.20 0.00 85 1021.2
20260905233819 57 281 5.0 10.0 0.00 0.20 0.00 85 1021.1
20260905233322 57 244 5.0 13.0 0.00 0.20 0.00 85 1021.2
20260905232323 57 260 5.0 11.0 0.00 0.20 0.00 85 1021.2
20260905231825 58 252 6.0 11.0 0.00 0.20 0.00 85 1021.1
20260905231328 58 268 5.0 12.0 0.00 0.20 0.00 85 1021.0
20260905230830 58 282 6.0 10.0 0.00 0.20 0.00 84 1021.0
20260905230332 58 275 5.0 12.0 0.00 0.20 0.00 84 1020.9
20260905225814 58 277 6.0 14.0 0.00 0.20 0.00 83 1020.9
20260905225317 58 283 9.0 14.0 0.00 0.20 0.00 83 1020.9
20260905224820 58 260 6.0 13.0 0.00 0.20 0.00 83 1021.0
20260905224323 58 289 6.0 12.0 0.00 0.20 0.00 83 1020.9
20260905223826 58 274 7.0 12.0 0.00 0.20 0.00 84 1020.9
20260905223329 58 276 5.0 14.0 0.00 0.20 0.00 84 1020.8
20260905222827 58 236 5.0 12.0 0.00 0.20 0.00 85 1020.8
20260905222328 58 283 4.0 16.0 0.00 0.20 0.00 86 1020.8
20260905221830 58 246 4.0 10.0 0.00 0.20 0.00 87 1020.6
20260905221332 58 274 4.0 9.0 0.00 0.20 0.00 87 1020.7
20260905220816 58 263 5.0 8.0 0.00 0.20 0.00 88 1020.6
20260905220338 57 269 5.0 9.0 0.00 0.20 0.00 88 1020.7
20260905215832 57 263 4.0 10.0 0.00 0.20 0.04 88 1020.7
20260905215314 57 260 3.0 9.0 0.00 0.20 0.04 88 1020.6
20260905214815 57 267 3.0 8.0 0.00 0.20 0.04 88 1020.5
20260905214318 57 235 6.0 8.0 0.00 0.20 0.04 88 1020.5
20260905213818 57 269 3.0 7.0 0.00 0.20 0.04 88 1020.5
20260905213338 57 269 3.0 6.0 0.00 0.20 0.04 88 1020.4
20260905212817 57 252 3.0 6.0 0.00 0.20 0.04 88 1020.4
20260905212317 58 256 3.0 7.0 0.00 0.20 0.04 88 1020.3
20260905211817 58 261 4.0 9.0 0.00 0.20 0.04 88 1020.2
20260905211318 58 257 3.0 7.0 0.00 0.20 0.04 87 1020.2
20260905210819 58 265 2.0 6.0 0.00 0.20 0.04 87 1020.1
20260905210339 58 270 2.0 7.0 0.00 0.20 0.04 86 1020.1
20260905205838 58 270 3.0 7.0 0.00 0.51 0.04 86 1020.2
20260905205319 58 275 3.0 10.0 0.00 0.51 0.04 85 1020.1
20260905204821 58 269 5.0 11.0 0.00 0.51 0.04 85 1020.1
20260905204324 58 245 4.0 11.0 0.00 0.51 0.04 86 1020.0
20260905203828 58 259 4.0 9.0 0.00 0.51 0.04 86 1019.9
20260905203312 58 274 4.0 10.0 0.00 0.51 0.04 86 1019.9
20260905202814 59 316 5.0 11.0 0.00 0.51 0.04 86 1019.8
20260905202315 59 274 5.0 13.0 0.00 0.51 0.04 85 1019.9
20260905201816 59 281 6.0 15.0 0.00 0.51 0.04 85 1019.9
20260905201317 59 267 6.0 15.0 0.00 0.51 0.04 86 1019.8
20260905200820 59 281 6.0 13.0 0.00 0.51 0.04 86 1019.7
20260905200322 59 275 4.0 13.0 0.00 0.51 0.04 86 1019.8
20260905195825 59 259 6.0 10.0 0.00 0.71 0.04 86 1019.7
20260905195348 59 265 4.0 10.0 0.00 0.71 0.04 86 1019.6
20260905194830 59 286 5.0 10.0 0.00 0.71 0.04 86 1019.5
20260905194331 59 276 5.0 13.0 0.00 0.71 0.04 86 1019.5
20260905193830 59 272 7.0 14.0 0.00 0.71 0.04 86 1019.5
20260905193330 59 274 9.0 14.0 0.00 0.71 0.04 87 1019.4
20260905192831 59 211 4.0 12.0 0.00 0.71 0.04 88 1019.3
20260905192312 59 260 3.0 12.0 0.00 0.71 0.04 88 1019.3
20260905191834 59 269 4.0 13.0 0.00 0.71 0.04 88 1019.2
20260905191329 59 263 5.0 13.0 0.00 0.71 0.04 89 1019.2
20260905190832 59 270 5.0 10.0 0.00 0.71 0.04 89 1019.0
20260905190313 58 214 5.0 9.0 0.00 0.71 0.04 89 1019.0
20260905185815 58 280 3.0 10.0 0.00 0.98 0.04 89 1018.9
20260905185338 58 251 4.0 9.0 0.00 0.98 0.04 89 1018.8
20260905184820 58 263 6.0 9.0 0.00 0.98 0.04 89 1018.9
20260905184322 58 274 6.0 10.0 0.00 0.98 0.04 89 1018.8
20260905183825 58 267 5.0 11.0 0.00 0.98 0.04 89 1018.8
20260905183328 58 262 4.0 11.0 0.00 0.98 0.04 89 1018.9
20260905182829 58 271 6.0 12.0 0.04 0.98 0.04 89 1018.9
20260905182331 58 267 8.0 13.0 0.20 0.98 0.04 90 1018.8
20260905181814 58 244 5.0 13.0 0.20 0.98 0.04 90 1018.7
20260905181318 58 274 5.0 10.0 0.20 0.98 0.04 90 1018.8
20260905180822 58 263 5.0 10.0 0.20 0.98 0.04 90 1018.6
20260905180323 58 251 5.0 10.0 0.20 0.98 0.04 90 1018.6
20260905175825 58 253 4.0 10.0 0.20 0.98 0.04 90 1018.5
20260905175329 58 262 6.0 10.0 0.20 0.98 0.04 89 1018.7
20260905174832 59 309 4.0 11.0 0.20 0.98 0.04 88 1018.5
20260905174334 59 295 3.0 11.0 0.20 0.98 0.04 88 1018.4
20260905173816 59 288 4.0 15.0 0.20 0.98 0.04 87 1018.6
20260905173316 60 345 7.0 17.0 0.20 0.98 0.04 86 1018.6
20260905172818 61 347 6.0 17.0 0.12 0.91 0.02 83 1018.6
20260905172319 63 334 8.0 17.0 0.00 0.79 0.00 79 1018.5
20260905171819 63 8 5.0 12.0 0.00 0.79 0.00 75 1018.4
20260905171320 63 347 2.0 10.0 0.00 0.79 0.00 76 1018.0
20260905170841 63 262 5.0 9.0 0.00 0.79 0.00 77 1017.7
20260905170320 62 265 1.0 7.0 0.00 0.79 0.00 79 1017.6
20260905165838 63 324 3.0 7.0 0.00 1.34 0.00 79 1017.6
20260905165337 62 279 2.0 10.0 0.00 1.34 0.00 79 1017.5
20260905164818 62 319 4.0 12.0 0.00 1.34 0.00 80 1017.5
20260905164320 62 354 4.0 12.0 0.00 1.34 0.00 79 1017.4
20260905163820 63 312 2.0 9.0 0.00 1.34 0.00 78 1017.4